Location: Brabourne
(51.1333°N, 1.0000°E)
Time: 06:24:40
(UTC+00:00)

Cosmos 2237 Rocket - Pass Details

Date: 20 June 2021
Orbit: 835 x 850 km, 71.0° (Epoch: 31 July)

Event Time Altitude Azimuth Distance (km) Brightness Sun altitude
Exits shadow 00:20:08 - 241° (WSW) 2,947 4.7 -15.3°
Reaches altitude 10° 00:21:35 10° 246° (WSW) 2,446 4.3 -15.2°
Maximum altitude 00:26:44 36° 313° (NW) 1,299 3.5 -15.2°
Drops below altitude 10° 00:31:55 10° 20° (NNE) 2,459 5.9 -15.0°
Sets 00:34:34 0° 29° (NNE) 3,398 6.8 -15.0°
